Temperature
8 8 8 8 8 8 7 7 7 7 7 7 7 7 6 6 6 6 6 6 6 6 5 5 5 5 5 5 5 4 4 4 3 4 4 4 4 4 4 4 4 4 4
8 8 8 8 7 7 7 7 7 7 7 6 6 6 6 6 6 6 5 5 5 5 5 5 5 5 4 4 4 4 4 4 3 3 3 3 3 3 4 4 4 4 4
8 8 7 7 7 7 7 7 7 6 6 6 6 6 6 6 5 5 5 5 5 5 5 4 4 4 4 4 4 4 3 3 3 3 3 3 3 3 3 3 3 3 3
7 7 7 7 7 7 6 6 6 6 6 6 6 6 5 5 5 5 5 4 4 4 4 4 4 4 4 4 3 3 3 3 3 2 2 2 2 2 2 2 2 2 2
7 7 7 6 6 6 6 6 6 6 6 5 5 5 5 5 5 4 4 4 4 4 4 4 4 3 3 3 3 3 2 2 2 2 2 2 2 2 2 2 2 2 2
6 6 6 6 6 6 6 5 5 5 5 5 5 5 4 4 4 4 4 3 3 3 3 3 3 3 3 3 3 2 2 2 2 2 1 1 1 1 1 1 1 1 1
6 6 6 5 5 5 5 5 5 5 4 4 4 4 4 4 4 3 3 3 3 3 3 3 3 3 3 2 2 2 2 2 1 1 1 1 1 1 1 1 1 0 0
5 5 5 5 5 5 4 4 4 4 4 4 4 4 3 3 3 3 3 2 2 2 2 2 2 2 2 2 1 1 1 1 1 1 1 1 1 0 0 0 0 0 0
4 4 4 4 4 4 4 4 4 4 3 3 3 3 3 3 3 3 2 2 2 2 2 2 2 2 2 1 1 1 1 1 1 1 0 0 0 0 -0 -0 -0 -1 -1
4 4 4 4 4 4 4 3 3 3 3 3 3 3 2 2 2 2 2 1 1 1 1 1 1 1 1 1 0 0 1 1 0 0 0 0 0 -0 -0 -1 -1 -1 -1
3 3 3 3 3 3 3 3 3 3 2 2 2 2 2 2 2 2 1 1 1 1 1 1 1 1 1 0 0 0 0 -0 -0 -0 -0 -0 -0 -0 -1 -1 -1 -1 -2
3 3 3 3 3 3 2 2 2 2 2 2 2 2 2 2 1 1 1 1 1 1 1 1 1 1 0 0 0 0 -0 -1 -1 -1 -1 -1 -1 -1 -1 -1 -2 -2 -2
3 2 2 2 2 2 2 2 2 2 1 1 1 1 1 1 1 1 1 1 0 0 0 0 0 0 0 -0 -0 -0 -1 -1 -1 -1 -1 -1 -1 -2 -2 -2 -2 -2 -2
2 2 2 2 2 2 1 1 1 1 1 1 1 1 1 1 1 1 0 0 -0 -0 -0 -0 -0 -0 -0 -0 -0 -1 -1 -1 -2 -2 -2 -2 -2 -2 -2 -2 -3 -3 -3
1 1 1 1 1 1 1 1 1 1 1 1 0 0 -0 0 0 0 -0 -0 -0 -1 -1 -1 -1 -1 -1 -1 -1 -1 -1 -2 -2 -2 -2 -2 -3 -3 -3 -3 -3 -3 -3
1 1 1 1 1 0 0 1 1 1 0 0 0 -0 -0 -0 -0 -0 -0 -1 -1 -1 -1 -1 -1 -1 -1 -1 -1 -1 -2 -2 -2 -3 -3 -3 -3 -3 -3 -4 -4 -4 -4
0 0 0 0 0 -0 -0 -0 -0 0 0 0 -0 -0 -0 -1 -1 -1 -1 -1 -1 -2 -2 -2 -1 -1 -1 -2 -2 -2 -2 -2 -3 -3 -3 -3 -3 -4 -4 -4 -4 -4 -5
-0 -0 -0 -0 -1 -1 -1 -1 -1 -1 -1 -0 -0 -1 -1 -1 -1 -1 -1 -2 -2 -2 -2 -2 -2 -2 -2 -2 -2 -2 -2 -3 -3 -3 -3 -4 -4 -4 -4 -4 -5 -5 -5
-1 -1 -1 -1 -1 -1 -1 -1 -1 -2 -2 -1 -1 -1 -1 -1 -2 -1 -2 -2 -2 -2 -2 -2 -2 -2 -2 -2 -2 -3 -3 -3 -3 -4 -4 -4 -4 -4 -5 -5 -5 -5 -5
-1 -1 -1 -2 -2 -2 -2 -2 -2 -2 -2 -2 -2 -2 -2 -2 -2 -2 -2 -2 -2 -2 -2 -2 -2 -2 -2 -3 -3 -3 -3 -4 -4 -4 -4 -4 -5 -5 -5 -5 -5 -5 -6
-2 -2 -2 -2 -2 -2 -2 -2 -2 -2 -2 -2 -2 -2 -2 -3 -2 -2 -2 -3 -3 -3 -3 -3 -3 -3 -3 -3 -3 -3 -4 -4 -4 -4 -4 -5 -5 -5 -5 -5 -6 -6 -6
-2 -2 -2 -2 -2 -2 -3 -3 -3 -3 -3 -3 -3 -3 -3 -3 -3 -3 -3 -3 -3 -3 -3 -3 -3 -3 -3 -3 -3 -4 -4 -4 -4 -4 -4 -5 -5 -5 -5 -6 -6 -6 -6
-2 -3 -3 -3 -3 -3 -3 -3 -3 -3 -3 -3 -3 -3 -3 -3 -3 -3 -3 -3 -3 -3 -3 -3 -3 -3 -3 -4 -4 -4 -4 -4 -4 -4 -5 -5 -5 -5 -5 -6 -6 -6 -6
-3 -3 -3 -3 -3 -4 -4 -4 -4 -4 -4 -4 -4 -4 -4 -4 -4 -4 -4 -4 -3 -3 -3 -4 -4 -4 -4 -4 -4 -4 -4 -4 -4 -5 -5 -5 -5 -6 -6 -6 -6 -6 -7
-3 -3 -4 -4 -4 -4 -4 -4 -4 -4 -4 -4 -4 -4 -4 -4 -4 -4 -4 -4 -4 -4 -4 -4 -4 -4 -4 -4 -4 -4 -4 -4 -5 -5 -5 -5 -6 -6 -6 -6 -6 -7 -7
-4 -4 -4 -4 -4 -4 -4 -4 -4 -4 -4 -4 -4 -4 -4 -4 -4 -4 -4 -4 -4 -4 -4 -4 -4 -4 -4 -4 -4 -4 -4 -5 -5 -5 -5 -6 -6 -6 -6 -6 -7 -7 -7
Wind_Speed
3 4 5 5 5 5 5 5 5 5 5 5 5 5 6 5 5 5 5 5 6 5 5 6 6 6 5 5 4 5 5 6 8 7 6 6 7 8 7 7 8 8 7
4 4 5 5 5 6 6 6 6 6 6 6 6 7 7 6 6 6 7 6 7 7 7 6 7 5 6 5 5 6 6 6 7 9 7 6 7 8 8 8 7 7 8
4 5 5 6 6 6 7 7 7 7 7 7 7 7 7 7 7 7 7 8 8 8 7 7 7 7 7 6 6 6 6 6 6 8 8 6 6 6 7 7 8 7 7
4 5 6 6 6 7 7 7 7 7 7 7 8 8 8 8 8 8 8 8 9 8 8 8 8 8 8 8 7 7 7 7 7 7 7 7 6 6 6 6 6 6 6
5 6 6 6 6 7 7 7 7 7 8 8 8 8 8 8 8 8 8 9 9 9 9 9 9 9 9 9 7 7 7 7 6 7 7 7 6 5 5 5 7 7 7
6 6 6 6 7 7 7 7 7 8 8 8 8 9 9 8 9 11 10 9 9 10 10 10 9 9 10 11 12 11 10 9 8 7 7 8 8 7 6 6 6 6 5
6 7 6 7 7 7 7 7 8 8 8 9 9 9 10 10 10 12 12 10 10 10 10 9 8 8 9 9 10 11 11 13 12 10 10 10 9 7 7 7 7 7 7
6 7 7 7 8 8 8 8 8 8 8 9 9 10 10 10 10 12 12 11 11 11 11 10 10 10 8 8 8 9 9 10 10 9 10 9 8 7 7 7 8 8 7
7 7 7 7 8 8 8 9 8 8 8 9 9 9 10 10 10 12 12 9 10 11 10 10 10 10 10 10 9 9 9 8 7 9 10 9 9 8 7 5 5 5 6
7 7 7 7 8 8 9 9 8 8 9 8 9 9 10 11 10 12 12 8 9 9 9 9 11 12 11 11 10 9 10 9 7 6 7 8 8 7 8 7 6 6 5
7 7 7 7 8 8 8 8 8 8 8 9 10 9 10 11 11 12 13 9 9 9 8 8 8 11 13 13 12 10 11 9 7 6 6 6 5 5 5 6 6 6 6
7 8 8 8 7 7 8 7 7 8 8 9 9 9 8 9 10 11 13 13 11 9 9 8 8 10 12 12 11 11 11 8 6 6 6 6 5 5 5 5 6 6 6
7 8 8 8 7 7 7 7 7 7 7 8 8 8 8 7 8 11 13 14 13 10 9 10 11 11 11 10 11 11 9 7 6 6 7 6 5 5 4 4 4 4 5
8 8 8 8 8 7 6 6 6 7 7 8 8 8 8 8 7 6 7 8 10 9 8 9 11 10 9 9 8 7 7 7 7 7 6 5 4 4 4 4 4 4 4
8 8 8 7 8 7 7 7 8 9 9 9 8 8 9 9 9 9 8 7 7 7 7 6 6 6 6 6 6 6 6 6 6 6 5 5 4 4 4 3 4 4 4
8 8 7 7 7 7 8 8 10 12 13 15 15 14 12 13 13 13 13 13 12 11 8 7 7 7 7 7 7 6 6 6 6 5 5 5 5 5 4 3 3 4 5
8 8 7 7 7 7 7 8 9 8 11 14 15 16 16 16 16 15 14 13 13 12 9 8 8 8 7 7 7 7 6 6 5 5 6 5 5 5 4 4 4 4 4
8 8 8 8 8 8 8 8 8 9 9 9 9 13 15 15 15 14 13 10 9 9 8 8 8 8 7 7 7 7 6 5 5 5 6 5 5 5 5 5 4 5 4
8 7 7 8 8 8 8 8 8 9 9 9 9 9 10 11 12 13 11 8 8 8 8 8 8 7 7 7 7 6 6 6 6 5 5 5 5 5 5 5 5 6 5
8 10 10 9 8 8 8 8 8 9 9 9 9 9 7 6 7 7 7 7 8 8 8 8 7 7 7 7 6 6 6 6 6 6 6 5 5 5 6 6 5 5 5
8 9 10 9 9 9 8 9 9 9 9 9 9 9 10 8 8 8 8 7 8 8 8 8 7 7 7 6 6 7 7 6 6 6 6 5 5 5 5 5 5 5 4
8 8 8 8 9 8 9 9 9 9 10 11 10 10 12 9 8 8 8 7 7 7 7 7 7 7 6 6 6 6 7 7 6 6 6 5 5 5 5 5 5 4 4
8 9 9 9 9 10 10 9 9 9 10 10 9 9 8 8 8 8 8 7 7 6 6 6 6 6 6 5 6 6 7 7 6 6 6 6 5 5 5 5 6 5 5
9 9 10 10 9 9 9 9 9 9 9 10 9 9 8 8 8 8 8 7 6 6 6 6 6 7 7 6 6 6 6 6 6 6 7 7 6 5 5 5 5 6 5
9 9 10 10 9 9 9 9 9 9 9 9 9 8 8 8 8 8 7 6 6 6 7 6 5 6 8 8 7 6 8 9 9 7 7 6 6 6 6 6 5 5 5
10 10 10 9 9 9 9 9 9 9 9 8 8 8 8 8 8 7 7 6 6 6 6 5 6 6 7 7 8 8 9 10 10 10 7 6 6 6 6 5 5 5 5
Wind_Direction
245 242 240 240 239 240 242 248 251 254 252 253 254 254 255 257 257 256 258 261 262 267 267 268 269 272 271 268 266 264 261 261 272 282 284 293 293 293 295 295 295 293 292
259 254 251 249 245 245 248 249 249 251 250 249 251 250 251 253 253 253 256 256 257 261 263 264 267 268 267 268 266 265 265 263 271 280 284 286 286 292 294 294 294 290 289
268 262 259 256 255 254 255 253 249 248 249 247 247 248 249 249 250 252 255 256 256 260 262 261 264 264 264 264 265 266 266 269 267 274 282 285 285 288 293 291 289 288 289
270 267 267 266 263 262 260 257 253 251 250 250 249 250 250 249 249 250 253 256 258 258 258 258 259 258 261 264 264 265 267 268 266 269 276 282 284 287 286 288 290 289 289
273 271 272 274 271 266 263 260 257 254 253 254 254 253 251 250 248 248 252 255 258 259 257 256 256 256 260 260 262 264 263 263 265 268 273 278 278 282 280 281 287 292 285
274 274 278 277 272 267 265 264 261 259 259 257 255 255 254 252 245 246 253 258 257 258 260 259 257 252 252 254 257 259 258 259 261 264 268 270 274 277 279 278 286 290 284
279 281 282 278 273 270 268 265 262 262 261 259 259 257 258 257 249 250 250 256 258 258 259 260 258 254 253 257 256 254 254 253 256 261 266 267 273 274 275 275 274 276 279
284 285 285 281 277 276 270 267 266 264 262 262 261 259 260 259 251 252 253 254 258 258 257 257 257 258 252 253 260 261 261 257 251 252 259 267 271 275 268 271 277 278 278
285 287 286 282 278 275 272 270 270 267 265 263 262 260 260 261 250 250 251 256 257 258 257 255 254 256 251 247 252 258 263 263 254 249 257 264 270 270 269 268 267 270 274
289 291 290 283 277 275 275 274 271 267 267 268 264 262 261 263 257 250 248 252 258 261 261 257 249 250 253 246 248 253 257 260 258 259 256 257 260 259 256 254 258 260 267
293 291 288 283 278 277 276 273 270 268 268 267 266 264 261 261 261 254 249 247 253 259 260 260 255 247 251 251 252 253 255 260 260 258 259 258 257 256 255 253 253 250 253
290 288 288 287 283 276 273 272 269 267 267 268 268 268 264 260 258 257 252 248 251 255 258 261 261 254 255 257 256 253 254 253 253 252 254 256 255 255 255 256 256 257 256
286 286 288 288 282 274 269 270 270 266 266 269 269 271 271 267 261 255 256 253 250 254 259 262 265 261 259 258 254 250 247 246 242 246 250 254 256 255 253 259 260 260 262
282 285 287 287 285 279 272 266 264 265 266 267 269 271 273 271 267 263 258 258 253 255 262 261 258 256 252 252 254 248 244 242 242 246 251 256 251 240 243 249 253 253 259
280 281 283 282 282 282 275 268 264 263 261 266 270 270 271 272 266 259 262 261 258 256 264 265 258 256 254 251 250 248 244 240 243 243 245 248 243 241 244 240 244 244 248
281 283 283 284 284 281 282 281 257 254 263 260 261 263 266 264 272 267 262 261 260 255 256 252 250 248 248 249 247 247 244 242 241 237 239 241 238 238 241 235 233 242 252
277 282 284 281 280 281 281 284 289 279 260 260 262 263 261 266 266 264 263 261 258 251 249 246 245 246 247 246 245 243 243 239 234 233 237 238 235 234 233 234 234 241 251
277 276 275 277 276 276 276 276 278 283 289 286 271 266 266 267 265 262 260 260 255 244 243 244 245 244 243 243 242 241 238 234 230 233 234 232 229 229 229 231 233 237 245
278 278 277 277 275 274 273 273 272 273 275 281 285 279 268 269 265 258 251 248 247 247 246 246 246 245 243 241 239 236 233 232 229 227 229 227 226 226 230 230 232 232 236
276 271 272 277 276 272 269 268 268 269 272 274 276 278 279 273 268 259 248 245 246 248 249 248 247 245 242 240 237 231 230 229 224 226 226 224 224 225 227 226 229 230 232
278 277 271 272 271 269 268 267 268 268 269 271 271 271 269 268 265 263 258 252 248 249 249 249 248 244 239 237 234 228 225 227 225 222 221 223 223 223 223 224 225 226 228
274 276 276 274 273 271 271 269 269 269 269 270 274 273 269 264 261 259 258 256 254 251 250 249 248 244 237 231 228 226 226 227 223 218 218 220 221 220 218 218 218 218 220
271 273 274 274 272 273 273 270 268 267 268 268 271 271 268 261 259 258 259 259 258 255 250 245 246 247 243 234 228 224 226 226 221 211 212 216 218 216 213 214 214 215 217
270 272 274 276 275 273 272 272 271 269 268 269 269 268 267 265 263 261 261 261 258 254 249 245 244 241 238 237 233 225 223 218 211 210 210 213 215 214 210 212 214 215 217
271 272 273 273 273 274 274 273 272 270 270 269 269 269 269 268 267 267 264 262 258 255 251 249 245 240 236 235 234 224 212 210 211 207 206 210 212 209 208 209 210 209 211
271 271 272 272 271 271 271 273 273 271 271 270 269 269 268 268 268 268 267 264 261 258 256 253 244 241 239 237 231 221 215 215 214 211 206 205 204 204 201 203 203 204 204
Height
1504 1504 1504 1503 1503 1502 1501 1501 1500 1499 1498 1497 1496 1495 1494 1493 1492 1491 1490 1489 1488 1486 1485 1484 1482 1481 1480 1478 1477 1476 1475 1473 1471 1468 1466 1464 1462 1460 1458 1456 1454 1452 1450
1501 1500 1500 1500 1499 1498 1498 1497 1496 1495 1494 1493 1492 1491 1490 1489 1488 1487 1486 1485 1483 1482 1481 1479 1478 1477 1475 1474 1473 1471 1470 1469 1467 1464 1461 1460 1458 1456 1453 1451 1449 1447 1445
1497 1497 1496 1496 1495 1494 1494 1493 1491 1490 1489 1488 1487 1486 1485 1484 1483 1482 1481 1480 1479 1477 1476 1475 1473 1472 1471 1470 1468 1467 1465 1464 1462 1460 1457 1455 1453 1451 1449 1447 1445 1443 1441
1494 1493 1492 1491 1490 1490 1489 1488 1486 1485 1484 1483 1482 1481 1480 1479 1478 1477 1476 1475 1473 1472 1471 1470 1469 1467 1466 1465 1463 1462 1460 1459 1457 1455 1452 1450 1448 1447 1445 1442 1440 1438 1436
1489 1488 1487 1486 1485 1484 1483 1483 1481 1480 1479 1478 1477 1475 1474 1473 1472 1471 1471 1469 1468 1467 1466 1465 1463 1462 1461 1459 1458 1457 1455 1454 1452 1450 1448 1446 1444 1442 1440 1438 1436 1434 1431
1485 1484 1483 1482 1480 1479 1478 1477 1476 1475 1473 1472 1471 1470 1468 1467 1467 1466 1465 1464 1462 1461 1460 1458 1457 1456 1455 1454 1453 1451 1450 1449 1447 1445 1443 1441 1439 1438 1436 1434 1432 1430 1427
1481 1480 1478 1477 1475 1474 1472 1471 1470 1469 1468 1466 1465 1464 1462 1461 1461 1460 1459 1458 1456 1455 1454 1452 1451 1450 1449 1448 1446 1445 1444 1442 1441 1440 1438 1436 1435 1433 1431 1429 1427 1425 1423
1477 1475 1473 1471 1470 1468 1467 1465 1464 1463 1461 1460 1459 1458 1456 1455 1455 1454 1453 1451 1450 1448 1447 1446 1445 1444 1443 1442 1440 1439 1437 1436 1435 1434 1432 1431 1430 1428 1426 1425 1422 1420 1418
1472 1470 1468 1466 1464 1463 1461 1460 1459 1457 1456 1454 1453 1452 1450 1449 1448 1447 1446 1445 1443 1442 1441 1440 1439 1438 1437 1436 1434 1432 1431 1430 1429 1428 1426 1425 1423 1422 1421 1419 1417 1415 1412
1467 1465 1463 1461 1459 1458 1456 1454 1453 1452 1450 1448 1447 1445 1444 1443 1442 1441 1440 1439 1437 1436 1435 1434 1432 1431 1431 1429 1428 1426 1424 1423 1423 1421 1420 1419 1417 1416 1415 1414 1412 1411 1408
1462 1460 1458 1456 1454 1453 1451 1449 1447 1446 1444 1442 1441 1439 1438 1436 1435 1435 1434 1432 1431 1430 1428 1427 1426 1425 1424 1423 1422 1420 1419 1418 1416 1415 1413 1412 1411 1410 1409 1409 1407 1406 1404
1457 1455 1453 1451 1449 1447 1445 1443 1442 1440 1438 1436 1434 1433 1431 1430 1429 1428 1427 1426 1425 1423 1422 1421 1420 1419 1418 1416 1415 1414 1413 1412 1410 1409 1408 1407 1406 1405 1404 1403 1402 1401 1399
1452 1450 1448 1446 1444 1442 1440 1438 1436 1434 1432 1430 1428 1426 1424 1423 1422 1421 1420 1419 1418 1417 1415 1414 1413 1412 1411 1409 1408 1407 1406 1405 1404 1403 1402 1401 1401 1400 1399 1398 1397 1395 1394
1447 1445 1443 1441 1439 1437 1435 1433 1430 1428 1426 1424 1422 1420 1418 1417 1415 1414 1413 1412 1411 1410 1409 1408 1407 1406 1404 1403 1402 1401 1400 1399 1399 1398 1397 1396 1395 1394 1393 1392 1391 1390 1389
1442 1440 1438 1435 1433 1431 1429 1427 1424 1422 1421 1419 1416 1414 1412 1410 1409 1409 1407 1406 1405 1404 1402 1401 1400 1399 1398 1397 1396 1395 1394 1393 1393 1392 1391 1391 1390 1389 1388 1387 1386 1385 1384
1436 1435 1432 1430 1427 1425 1422 1420 1417 1416 1414 1412 1410 1408 1405 1404 1403 1402 1401 1399 1398 1398 1396 1394 1393 1393 1392 1390 1389 1388 1388 1387 1387 1387 1386 1385 1385 1384 1383 1382 1382 1381 1379
1431 1429 1427 1424 1421 1419 1416 1413 1410 1409 1407 1405 1403 1401 1399 1398 1396 1395 1394 1393 1392 1391 1390 1388 1387 1386 1385 1384 1383 1383 1382 1382 1382 1381 1381 1380 1380 1379 1378 1378 1377 1376 1375
1426 1423 1421 1418 1416 1413 1410 1408 1405 1402 1399 1397 1396 1395 1393 1391 1390 1388 1387 1386 1384 1384 1383 1382 1381 1380 1379 1378 1378 1377 1377 1376 1376 1376 1375 1375 1374 1374 1374 1373 1373 1372 1371
1420 1417 1415 1412 1409 1407 1404 1401 1399 1396 1393 1391 1389 1387 1386 1385 1383 1382 1381 1379 1378 1377 1376 1375 1374 1374 1373 1372 1372 1371 1371 1371 1370 1370 1370 1370 1369 1369 1369 1369 1369 1368 1368
1413 1411 1409 1405 1403 1400 1398 1395 1392 1390 1387 1385 1383 1381 1380 1378 1376 1375 1374 1373 1371 1370 1369 1369 1368 1367 1367 1366 1366 1365 1365 1365 1365 1365 1365 1365 1365 1365 1365 1365 1364 1364 1363
1407 1404 1402 1399 1396 1393 1391 1388 1386 1383 1381 1379 1377 1375 1374 1372 1370 1368 1367 1366 1365 1364 1363 1362 1361 1361 1360 1360 1360 1359 1359 1359 1359 1360 1360 1360 1360 1360 1360 1360 1360 1360 1360
1400 1397 1395 1392 1389 1386 1384 1381 1379 1376 1374 1372 1370 1368 1367 1365 1363 1362 1360 1359 1358 1357 1356 1356 1355 1355 1354 1354 1354 1354 1354 1354 1354 1354 1355 1355 1356 1356 1356 1356 1356 1356 1356
1393 1390 1387 1385 1382 1379 1377 1374 1372 1369 1367 1365 1363 1361 1360 1358 1356 1355 1354 1353 1352 1351 1350 1349 1349 1348 1348 1348 1348 1348 1349 1349 1349 1350 1350 1350 1351 1351 1352 1352 1352 1352 1352
1386 1383 1380 1377 1375 1372 1370 1367 1365 1363 1360 1358 1356 1354 1353 1351 1350 1349 1348 1347 1346 1345 1344 1343 1343 1343 1342 1343 1343 1343 1343 1344 1344 1345 1345 1346 1347 1347 1348 1348 1348 1348 1349
1379 1376 1373 1370 1368 1365 1363 1360 1358 1356 1354 1352 1350 1348 1346 1345 1344 1343 1342 1341 1340 1339 1339 1338 1337 1337 1337 1337 1337 1338 1338 1339 1339 1340 1341 1341 1342 1343 1344 1344 1345 1345 1345
1371 1369 1366 1363 1361 1358 1356 1354 1351 1349 1347 1345 1343 1342 1340 1339 1338 1337 1336 1335 1334 1333 1333 1332 1332 1332 1332 1332 1332 1333 1333 1334 1335 1336 1337 1337 1338 1339 1340 1341 1341 1342 1342